Watonga, OK

10:52 PM CST on February 08, 2016 (GMT -0600)
Watonga

Weather History for KJWG - February, 2014

Change the Weather History Date:

Thursday, February 27, 2014

  Actual Average Record
Temperature  
Mean Temperature 38 °F -  
Max Temperature 55 °F 58 °F 80 °F (1976)
Min Temperature 22 °F 33 °F 10 °F (1962)
Degree Days  
Heating Degree Days 26    
Moisture  
Dew Point 21 °F    
Average Humidity 50    
Maximum Humidity 73    
Minimum Humidity 28    
Precipitation  
Precipitation 0.00 in - - ()
Sea Level Pressure  
Sea Level Pressure 29.94 in    
Wind  
Wind Speed 8 mph (South)    
Max Wind Speed 17 mph    
Max Gust Speed 21 mph    
Visibility 10 miles    
Events      
Averages and records for this station are not official NWS values.
T = Trace of Precipitation, MM = Missing Value Source: NWS Daily Summary

Daily Weather History Graph

Daily Weather History Graph

Search for Another Location

Airport or City:

Trip Planner

Search our weather history database for the weather conditions in past years. The results will help you decide how hot, cold, wet, or windy it might be!

Date:

Astronomy

Feb. 27, 2014 Rise Set
Actual Time 7:06 AM CST 6:26 PM CST
Civil Twilight 6:40 AM CST 6:52 PM CST
Nautical Twilight 6:10 AM CST 7:22 PM CST
Astronomical Twilight 5:41 AM CST 7:52 PM CST
Moon 5:37 AM CST (2/27) 4:55 PM CST (2/27)
Length of Visible Light 12h 12m
Length of Day
11h 20m
Waning Crescent, 4% of the Moon is Illuminated
Feb 27
Waning Crescent
Mar 1
New
Mar 8
First Quarter
Mar 16
Full
Mar 23
Last Quarter

Hourly Weather History & Observations

Time (CST) Temp. Windchill Dew Point Humidity Pressure Visibility Wind Dir Wind Speed Gust Speed Precip Events Conditions
12:15 AM 25.7 °F 18.0 °F 16.3 °F 68% 30.10 in 10.0 mi SW 6.9 mph - N/A   Clear
12:35 AM 27.5 °F 18.0 °F 16.7 °F 64% 30.10 in 10.0 mi SW 10.4 mph - N/A   Clear
12:55 AM 27.5 °F 20.2 °F 16.7 °F 64% 30.10 in 10.0 mi SW 6.9 mph - N/A   Clear
1:15 AM 26.8 °F 18.5 °F 16.5 °F 65% 30.10 in 10.0 mi SW 8.1 mph - N/A   Clear
1:35 AM 27.5 °F 19.3 °F 16.5 °F 63% 30.09 in 10.0 mi SW 8.1 mph - N/A   Clear
1:55 AM 27.5 °F 18.0 °F 16.5 °F 63% 30.09 in 10.0 mi SW 10.4 mph - N/A   Clear
2:15 AM 27.5 °F 18.0 °F 16.3 °F 63% 30.09 in 10.0 mi SW 10.4 mph - N/A   Clear
2:35 AM 27.1 °F 18.2 °F 16.0 °F 63% 30.09 in 10.0 mi SW 9.2 mph - N/A   Clear
2:55 AM 27.0 °F 17.3 °F 15.8 °F 63% 30.08 in 10.0 mi SW 10.4 mph - N/A   Clear
3:15 AM 26.6 °F 18.2 °F 15.8 °F 64% 30.08 in 10.0 mi SW 8.1 mph - N/A   Clear
3:35 AM 26.6 °F 19.1 °F 15.8 °F 64% 30.07 in 10.0 mi SW 6.9 mph - N/A   Clear
3:55 AM 26.8 °F 18.5 °F 15.8 °F 63% 30.07 in 10.0 mi WSW 8.1 mph - N/A   Clear
4:15 AM 27.0 °F 19.5 °F 15.8 °F 63% 30.06 in 10.0 mi WSW 6.9 mph - N/A   Clear
4:35 AM 27.0 °F 18.7 °F 15.8 °F 63% 30.06 in 10.0 mi WSW 8.1 mph - N/A   Clear
4:55 AM 27.0 °F 21.6 °F 15.8 °F 63% 30.06 in 10.0 mi West 4.6 mph - N/A   Clear
5:15 AM 27.1 °F 19.7 °F 16.2 °F 63% 30.05 in 10.0 mi WSW 6.9 mph - N/A   Clear
5:35 AM 27.3 °F 22.0 °F 16.3 °F 63% 30.06 in 10.0 mi WSW 4.6 mph - N/A   Clear
5:55 AM 27.0 °F 23.0 °F 16.0 °F 63% 30.06 in 10.0 mi WSW 3.5 mph - N/A   Clear
6:15 AM 27.7 °F 23.8 °F 16.2 °F 62% 30.06 in 10.0 mi West 3.5 mph - N/A   Clear
6:35 AM 26.6 °F 20.0 °F 16.0 °F 64% 30.06 in 10.0 mi West 5.8 mph - N/A   Clear
6:55 AM 22.8 °F 16.7 °F 15.4 °F 73% 30.05 in 10.0 mi West 4.6 mph - N/A   Clear
7:15 AM 25.5 °F 18.7 °F 16.0 °F 67% 30.06 in 10.0 mi West 5.8 mph - N/A   Clear
7:35 AM 24.6 °F 17.7 °F 16.3 °F 71% 30.05 in 10.0 mi West 5.8 mph - N/A   Clear
7:55 AM 26.8 °F 21.4 °F 17.4 °F 68% 30.06 in 10.0 mi West 4.6 mph - N/A   Clear
8:15 AM 28.6 °F - 17.6 °F 64% 30.06 in 10.0 mi Calm Calm - N/A   Clear
8:35 AM 30.6 °F - 17.6 °F 59% 30.06 in 10.0 mi Calm Calm - N/A   Clear
8:55 AM 32.4 °F - 18.3 °F 56% 30.06 in 10.0 mi Calm Calm - N/A   Clear
9:15 AM 35.1 °F - 19.4 °F 53% 30.06 in 10.0 mi Calm Calm - N/A   Clear
9:35 AM 38.1 °F - 20.5 °F 49% 30.05 in 10.0 mi Calm Calm - N/A   Clear
9:55 AM 39.9 °F - 20.5 °F 46% 30.04 in 10.0 mi Calm Calm - N/A   Clear
10:15 AM 40.3 °F 38.2 °F 20.1 °F 45% 30.04 in 10.0 mi East 3.5 mph - N/A   Clear
10:35 AM 42.3 °F 39.4 °F 21.0 °F 43% 30.04 in 10.0 mi SE 4.6 mph - N/A   Clear
10:55 AM 43.7 °F - 21.7 °F 42% 30.03 in 10.0 mi Calm Calm - N/A   Clear
11:15 AM 45.5 °F 42.5 °F 23.0 °F 41% 30.01 in 10.0 mi SE 5.8 mph - N/A   Clear
11:35 AM 47.1 °F - 23.7 °F 40% 30.00 in 10.0 mi ESE 8.1 mph - N/A   Clear
11:55 AM 49.1 °F - 25.2 °F 39% 29.99 in 10.0 mi SE 6.9 mph - N/A   Clear
12:15 PM 49.6 °F - 25.2 °F 38% 29.98 in 10.0 mi SE 10.4 mph - N/A   Clear
12:35 PM 51.3 °F - 24.3 °F 35% 29.97 in 10.0 mi SSE 12.7 mph - N/A   Clear
12:55 PM 51.8 °F - 23.9 °F 34% 29.95 in 10.0 mi South 12.7 mph 19.6 mph N/A   Clear
1:15 PM 52.5 °F - 23.0 °F 32% 29.93 in 10.0 mi South 11.5 mph 16.1 mph N/A   Clear
1:35 PM 52.5 °F - 22.5 °F 31% 29.92 in 10.0 mi South 5.8 mph 19.6 mph N/A   Clear
1:55 PM 53.8 °F - 22.6 °F 30% 29.90 in 10.0 mi South 11.5 mph 16.1 mph N/A   Clear
2:15 PM 54.0 °F - 21.6 °F 28% 29.89 in 10.0 mi SSE 15.0 mph 19.6 mph N/A   Clear
2:35 PM 54.9 °F - 23.2 °F 29% 29.88 in 10.0 mi South 11.5 mph 16.1 mph N/A   Clear
2:55 PM 55.2 °F - 24.3 °F 30% 29.87 in 10.0 mi South 13.8 mph 17.3 mph N/A   Clear
3:15 PM 55.0 °F - 25.3 °F 32% 29.86 in 10.0 mi South 15.0 mph 18.4 mph N/A   Clear
3:35 PM 55.9 °F - 25.5 °F 31% 29.85 in 10.0 mi SSE 17.3 mph - N/A   Clear
3:55 PM 55.9 °F - 26.1 °F 32% 29.84 in 10.0 mi SSE 12.7 mph 20.7 mph N/A   Clear
4:15 PM 55.6 °F - 27.5 °F 34% 29.83 in 10.0 mi South 16.1 mph - N/A   Clear
4:35 PM 55.6 °F - 28.4 °F 35% 29.82 in 10.0 mi South 12.7 mph 18.4 mph N/A   Clear
4:55 PM 54.9 °F - 28.6 °F 37% 29.81 in 10.0 mi South 13.8 mph 19.6 mph N/A   Clear
5:15 PM 54.3 °F - 28.2 °F 37% 29.81 in 10.0 mi South 15.0 mph 19.6 mph N/A   Clear
5:35 PM 53.6 °F - 28.9 °F 39% 29.80 in 10.0 mi South 12.7 mph - N/A   Clear
5:55 PM 52.7 °F - 28.9 °F 40% 29.80 in 10.0 mi South 11.5 mph - N/A   Clear
6:15 PM 51.3 °F - 27.5 °F 40% 29.80 in 10.0 mi South 10.4 mph - N/A   Clear
6:35 PM 49.5 °F - 26.6 °F 41% 29.81 in 10.0 mi South 9.2 mph - N/A   Clear
6:55 PM 47.7 °F - 25.7 °F 42% 29.80 in 10.0 mi SSE 8.1 mph - N/A   Clear
7:15 PM 45.9 °F 41.2 °F 25.3 °F 45% 29.80 in 10.0 mi SSE 9.2 mph - N/A   Clear
7:35 PM 45.3 °F 40.6 °F 25.0 °F 45% 29.80 in 10.0 mi SSE 9.2 mph - N/A   Clear
7:55 PM 44.8 °F 39.9 °F 24.8 °F 46% 29.78 in 10.0 mi SE 9.2 mph - N/A   Clear
8:15 PM 43.9 °F 38.8 °F 24.6 °F 47% 29.78 in 10.0 mi SE 9.2 mph - N/A   Clear
8:35 PM 43.2 °F 37.4 °F 24.4 °F 48% 29.77 in 10.0 mi SE 10.4 mph - N/A   Clear
8:55 PM 43.2 °F 37.9 °F 24.4 °F 48% 29.77 in 10.0 mi SE 9.2 mph - N/A   Clear
9:15 PM 42.4 °F 37.0 °F 24.4 °F 49% 29.77 in 10.0 mi SE 9.2 mph - N/A   Clear
9:35 PM 41.4 °F 36.2 °F 24.4 °F 51% 29.77 in 10.0 mi SE 8.1 mph - N/A   Clear
10:00 PM 41.0 °F 35.8 °F 24.4 °F 52% 29.76 in 10.0 mi SE 8.1 mph - N/A   Clear
10:15 PM 41.2 °F 36.0 °F 24.4 °F 51% 29.76 in 10.0 mi SSE 8.1 mph - N/A   Clear
10:35 PM 41.4 °F 35.7 °F 24.4 °F 51% 29.76 in 10.0 mi SSE 9.2 mph - N/A   Clear
10:55 PM 42.1 °F 35.2 °F 24.4 °F 50% 29.76 in 10.0 mi SE 12.7 mph 17.3 mph N/A   Clear
11:15 PM 41.4 °F 34.0 °F 24.6 °F 51% 29.75 in 10.0 mi SE 13.8 mph 18.4 mph N/A   Clear
11:35 PM 41.4 °F 34.7 °F 24.8 °F 52% 29.74 in 10.0 mi SE 11.5 mph - N/A   Clear
11:55 PM 41.2 °F 34.1 °F 25.0 °F 53% 29.73 in 10.0 mi SE 12.7 mph 18.4 mph N/A   Clear